Regional Weather Roundup
Issued by NWS

Home | Current Version | Previous Version | Text Only | Print | Product List | Glossary On
Versions: 1 2 3 4 5 6 7 8 9 10 11 12 13 14 15 16 17 18 19 20 21 22 23 24 25 26 27 28 29 30 31 32 33 34 35 36 37 38 39 40 41 42 43 44 45 46 47 48 49 50
000
ASUS43 KLOT 272210
RWRIL

ILLINOIS REGIONAL WEATHER ROUNDUP
NATIONAL WEATHER SERVICE CHICAGO/ROMEOVILLE IL
400 PM CST FRI FEB 27 2015

NOTE: "FAIR" INDICATES FEW OR NO CLOUDS BELOW 12,000 FEET WITH NO
SIGNIFICANT WEATHER AND/OR OBSTRUCTIONS TO VISIBILITY.

* THESE STATIONS ARE NOT UNDER NWS QUALITY CONTROL. THEY ALSO MAY NOT
  REPORT WEATHER SUCH AS PRECIPITATION OR FOG.

ILZ001-002-007-009-015-016-024-272300-
NORTHWEST ILLINOIS

CITY           SKY/WX    TMP DP  RH WIND       PRES   REMARKS
MOLINE         SUNNY     12  -3  51 W3        30.62S
STERLING*      SUNNY     12   0  57 W5        30.62S WCI   4
SAVANNA*       SUNNY     12  -5  46 W6        30.61F WCI   2
$$

ILZ003-004-008-010-011-017-018-272300-
NORTH CENTRAL ILLINOIS

CITY           SKY/WX    TMP DP  RH WIND       PRES   REMARKS
ROCKFORD       SUNNY     12  -5  46 W6        30.60F WCI   3
FREEPORT*      SUNNY     10  -4  54 SW7       30.60S WCI  -1
ROCHELLE*      SUNNY      8  -1  67 SW6       30.60F WCI  -2
DE KALB*       SUNNY      8  -4  59 W9        30.59S WCI  -6
PERU*          SUNNY     12  -3  52 NW9       30.63S WCI  -1
$$

ILZ005-006-012>014-019>023-272300-
NORTHEAST ILLINOIS

CITY           SKY/WX    TMP DP  RH WIND       PRES   REMARKS
CHICAGO-OHARE  SUNNY     13  -4  46 W10       30.58F WCI   0
CHICAGO-MIDWAY SUNNY     16  -3  43 W8        30.59F WCI   5
AURORA         SUNNY      9  -2  61 W6        30.60F WCI  -1
LANSING*       SUNNY     15  -3  46 W7        30.60S WCI   5
JOLIET*        SUNNY     12  -4  49 W5        30.63R WCI   4
WAUKEGAN       SUNNY     15  -4  42 W8        30.56F WCI   4
DUPAGE AIRPORT SUNNY     11  -4  51 W8        30.58F WCI  -1
KANKAKEE*      SUNNY     12   1  60 SW8       30.64S WCI   0
WHEELING       SUNNY     14  -5  42 SW7       30.60S WCI   4
MORRIS*        SUNNY     10   1  67 NW5       30.62R WCI   2
ROMEOVILLE*    SUNNY     11  -3  53 W7        30.61R WCI   1
NORTHERLY ISL    N/A     18  -2  41 W10         N/A  WCI   6
$$

LMZ740>746-272300-
SOUTHERN LAKE MICHIGAN

STATION/POSITION SKY/WX   TEMP    WIND        PRES    VSBY  WAVE
                          AIR SEA DIR/SP/G                  HT/PER
                          (F)     (DEG/KT/KT) (MB)    (MI)  (FT/S)
WAUKEGAN HARBOR            15     240/  9/ 11   N/A
HARRISON CRIB              16     260/  8/ 13   N/A
BURNHAM HARBOR             18     270/  2/ 12   N/A
CALUMET HARBOR             17     210/  6/ 13 1034.4F
MICHIGAN CITY              17     250/  4/  5   N/A
$$

ILZ025>027-034>036-040-047-049-050-058-095>099-272300-
WEST-CENTRAL ILLINOIS

CITY           SKY/WX    TMP DP  RH WIND       PRES   REMARKS
QUINCY         SUNNY     12  -5  46 N3        30.62F
GALESBURG*     SUNNY      9  -3  58 NW5       30.63S WCI   1
MACOMB*        SUNNY     10  -1  60 N5        30.66S WCI   2
JACKSONVILLE*  SUNNY     14  -1  50 CALM      30.64F
PITTSFIELD*    SUNNY     15  -2  48 W5        30.63S WCI   7
$$

ILZ028>032-037-038-041>044-048-051>054-059>061-272300-
CENTRAL ILLINOIS

CITY           SKY/WX    TMP DP  RH WIND       PRES   REMARKS
PONTIAC        SUNNY     12   1  59 W3        30.64S
BLOOMINGTON    SUNNY     16   1  51 E3        30.62S
DECATUR        SUNNY     13   1  59 NE6       30.62F WCI   4
PEORIA         SUNNY     16  -3  43 W5        30.63F WCI   9
LACON*         SUNNY     11  -4  49 NW6       30.64S WCI   2
LINCOLN*       PTSUNNY   16   5  63 SE5       30.67R WCI   9
SPRINGFIELD    SUNNY     12   0  58 W6        30.63F WCI   3
TAYLORVILLE    SUNNY     14   3  62 CALM      30.64S
$$

ILZ033-039-045-046-055>057-062-063-272300-
EAST-CENTRAL ILLINOIS

CITY           SKY/WX    TMP DP  RH WIND       PRES   REMARKS
CHAMPAIGN      SUNNY     13   1  59 W7        30.62R WCI   3
DANVILLE*      PTSUNNY   15   1  53 NW3       30.59S
RANTOUL*       SUNNY     17   3  55 W3        30.62R
MATTOON        SUNNY     14   0  53 N6        30.61F WCI   5
PARIS*         SUNNY     13   2  62 W3        30.64S
$$

ILZ079-100>102-272300-
SOUTHWEST ILLINOIS

CITY           SKY/WX    TMP DP  RH WIND       PRES   REMARKS
ALTON          MOSUNNY   16  -8  35 NE8       30.64S WCI   5
BELLEVILLE     SUNNY     19   2  47 NE6       30.62F WCI  11
CAHOKIA*       SUNNY     21   1  41 N6        30.63F WCI  13
SPARTA*        MOSUNNY   20   7  58 N6        30.62S WCI  12
$$

ILZ064>066-069>071-074>076-080>082-084>086-088>090-092>094-272300-
SOUTH-CENTRAL ILLINOIS

CITY           SKY/WX    TMP DP  RH WIND       PRES   REMARKS
CARBONDALE     MOSUNNY   22   8  55 VRB3      30.62S
CAIRO*         CLOUDY    26  11  52 N7        30.61S WCI  19
EFFINGHAM*     FAIR      16  -3  44 N3        30.64F
MARION         PTSUNNY   23  10  58 N9        30.63R WCI  13
MT. VERNON     SUNNY     19   3  49 N3        30.63S
CENTRALIA*     SUNNY     18   1  48 N5        30.63S WCI  11
SALEM*         SUNNY     18   0  45 CALM      30.64R
METROPOLIS*    PTSUNNY   26  10  51 E3        30.59S
$$

ILZ067-068-072-073-078-083-087-091-272300-
SOUTHEAST ILLINOIS

CITY           SKY/WX    TMP DP  RH WIND       PRES   REMARKS
LAWRENCEVILLE  SUNNY     20   3  48 NW5       30.64S WCI  13
FLORA*         SUNNY     17   1  51 CALM      30.65S
FAIRFIELD*     SUNNY     19   4  53 NW6       30.63S WCI  10
HARRISBURG*    MOSUNNY   21   9  59 N3        30.65R
ROBINSON*      SUNNY     19   2  47 N3        30.65S
CARMI*         MOSUNNY   24  13  64 N8        30.63S WCI  15
$$

ABBREVIATIONS USED IN REMARKS
   TC - TEMPERATURE IN CELSIUS
  WCI - WIND CHILL INDEX
   HX - HEAT INDEX
  VSB - VISIBILITY
$$



USA.gov is the U.S. government's official web portal to all federal, state and local government web resources and services.